Time,TemperatureF,DewpointF,PressureIn,WindDirection,WindDirectionDegrees,WindSpeedMPH,WindSpeedGustMPH,Humidity,HourlyPrecipIn,Conditions,Clouds,dailyrainin,SoftwareType,DateUTC
2014-07-09 00:01:00,69.0,64.3,29.88,WSW,247,3.0,4.0,85,0.00,,---,0.00,VWS V14.01,2014-07-09 04:01:00,
2014-07-09 00:03:00,69.0,64.3,29.88,WSW,247,2.0,4.0,85,0.00,,---,0.00,VWS V14.01,2014-07-09 04:03:00,
2014-07-09 00:05:00,69.0,64.3,29.89,WSW,247,2.0,3.0,85,0.00,,---,0.00,VWS V14.01,2014-07-09 04:05:00,
2014-07-09 00:10:00,69.0,64.3,29.89,WSW,247,5.0,8.0,85,0.00,,---,0.00,VWS V14.01,2014-07-09 04:10:00,
2014-07-09 00:15:00,69.0,64.3,29.89,WSW,247,6.0,9.0,85,0.00,,---,0.00,VWS V14.01,2014-07-09 04:15:00,
2014-07-09 00:20:00,69.0,64.3,29.89,WSW,247,5.0,5.0,85,0.00,,---,0.00,VWS V14.01,2014-07-09 04:20:00,
2014-07-09 00:25:00,69.0,64.3,29.89,West,270,1.0,3.0,85,0.00,,---,0.00,VWS V14.01,2014-07-09 04:25:00,
2014-07-09 00:30:00,68.0,63.7,29.89,SW,225,2.0,5.0,86,0.00,,---,0.00,VWS V14.01,2014-07-09 04:30:00,
2014-07-09 00:35:00,68.0,63.7,29.89,SW,225,3.0,5.0,86,0.00,,---,0.00,VWS V14.01,2014-07-09 04:35:00,
2014-07-09 00:40:00,68.0,64.0,29.89,WSW,247,4.0,5.0,87,0.00,,---,0.00,VWS V14.01,2014-07-09 04:40:00,
2014-07-09 00:45:00,68.0,64.0,29.90,WSW,247,2.0,6.0,87,0.00,,---,0.00,VWS V14.01,2014-07-09 04:45:00,
2014-07-09 00:50:00,68.0,64.0,29.90,WSW,247,1.0,4.0,87,0.00,,---,0.00,VWS V14.01,2014-07-09 04:50:00,
2014-07-09 00:55:00,68.0,63.7,29.90,WSW,247,4.0,5.0,86,0.00,,---,0.00,VWS V14.01,2014-07-09 04:55:00,
2014-07-09 01:00:00,68.0,64.0,29.90,WSW,247,2.0,4.0,87,0.00,,---,0.00,VWS V14.01,2014-07-09 05:00:00,
2014-07-09 01:05:00,68.0,63.7,29.89,WSW,247,3.0,6.0,86,0.00,,---,0.00,VWS V14.01,2014-07-09 05:05:00,
2014-07-09 01:11:00,68.0,63.7,29.89,WSW,247,3.0,6.0,86,0.00,,---,0.00,VWS V14.01,2014-07-09 05:11:00,
2014-07-09 01:16:00,68.0,63.7,29.89,WSW,247,4.0,4.0,86,0.00,,---,0.00,VWS V14.01,2014-07-09 05:16:00,
2014-07-09 01:21:00,67.0,62.7,29.89,SW,225,2.0,4.0,86,0.00,,---,0.00,VWS V14.01,2014-07-09 05:21:00,
2014-07-09 01:26:00,67.0,63.0,29.90,SW,225,0.0,4.0,87,0.00,,---,0.00,VWS V14.01,2014-07-09 05:26:00,
2014-07-09 01:31:00,67.0,63.0,29.90,SW,225,3.0,5.0,87,0.00,,---,0.00,VWS V14.01,2014-07-09 05:31:00,
2014-07-09 01:36:00,67.0,63.3,29.90,SW,225,2.0,3.0,88,0.00,,---,0.00,VWS V14.01,2014-07-09 05:36:00,
2014-07-09 01:41:00,66.0,62.3,29.90,SW,225,1.0,3.0,88,0.00,,---,0.00,VWS V14.01,2014-07-09 05:41:00,
2014-07-09 01:46:00,66.0,62.3,29.90,SW,225,3.0,4.0,88,0.00,,---,0.00,VWS V14.01,2014-07-09 05:46:00,
2014-07-09 01:51:00,66.0,62.3,29.90,SW,225,0.0,3.0,88,0.00,,---,0.00,VWS V14.01,2014-07-09 05:51:00,
2014-07-09 01:56:00,66.0,62.3,29.91,SW,225,1.0,4.0,88,0.00,,---,0.00,VWS V14.01,2014-07-09 05:56:00,
2014-07-09 02:01:00,66.0,62.7,29.91,SW,225,3.0,3.0,89,0.00,,---,0.00,VWS V14.01,2014-07-09 06:01:00,
2014-07-09 02:06:00,66.0,63.0,29.91,SW,225,0.0,3.0,90,0.00,,---,0.00,VWS V14.01,2014-07-09 06:06:00,
2014-07-09 02:11:00,66.0,63.0,29.91,SW,225,1.0,3.0,90,0.00,,---,0.00,VWS V14.01,2014-07-09 06:11:00,
2014-07-09 02:16:00,66.0,63.0,29.91,SW,225,3.0,3.0,90,0.00,,---,0.00,VWS V14.01,2014-07-09 06:16:00,
2014-07-09 02:22:00,66.0,63.0,29.91,SW,225,4.0,4.0,90,0.00,,---,0.00,VWS V14.01,2014-07-09 06:22:00,
2014-07-09 02:27:00,66.0,63.0,29.91,SW,225,3.0,4.0,90,0.00,,---,0.00,VWS V14.01,2014-07-09 06:27:00,
2014-07-09 02:32:00,65.0,62.0,29.91,SW,225,1.0,4.0,90,0.00,,---,0.00,VWS V14.01,2014-07-09 06:32:00,
2014-07-09 02:37:00,65.0,62.0,29.91,SW,225,1.0,5.0,90,0.00,,---,0.00,VWS V14.01,2014-07-09 06:37:00,
2014-07-09 02:42:00,65.0,62.3,29.91,WSW,247,0.0,4.0,91,0.00,,---,0.00,VWS V14.01,2014-07-09 06:42:00,
2014-07-09 02:47:00,65.0,62.3,29.91,WSW,247,0.0,2.0,91,0.00,,---,0.00,VWS V14.01,2014-07-09 06:47:00,
2014-07-09 02:52:00,65.0,62.6,29.91,South,180,2.0,4.0,92,0.00,,---,0.00,VWS V14.01,2014-07-09 06:52:00,
2014-07-09 02:57:00,65.0,62.6,29.91,SSW,202,0.0,4.0,92,0.00,,---,0.00,VWS V14.01,2014-07-09 06:57:00,
2014-07-09 03:02:00,65.0,62.6,29.91,SSW,202,0.0,0.0,92,0.00,,---,0.00,VWS V14.01,2014-07-09 07:02:00,
2014-07-09 03:07:00,65.0,62.9,29.91,SSW,202,3.0,3.0,93,0.00,,---,0.00,VWS V14.01,2014-07-09 07:07:00,
2014-07-09 03:12:00,65.0,63.2,29.91,SSW,202,0.0,3.0,94,0.00,,---,0.00,VWS V14.01,2014-07-09 07:12:00,
2014-07-09 03:17:00,65.0,63.2,29.90,SSW,202,2.0,4.0,94,0.00,,---,0.00,VWS V14.01,2014-07-09 07:17:00,
2014-07-09 03:22:00,65.0,62.9,29.90,SSW,202,1.0,3.0,93,0.00,,---,0.00,VWS V14.01,2014-07-09 07:22:00,
2014-07-09 03:27:00,64.0,61.9,29.90,SSW,202,2.0,3.0,93,0.00,,---,0.00,VWS V14.01,2014-07-09 07:27:00,
2014-07-09 03:32:00,64.0,62.2,29.90,SSW,202,3.0,3.0,94,0.00,,---,0.00,VWS V14.01,2014-07-09 07:32:00,
2014-07-09 03:38:00,64.0,62.2,29.90,WSW,247,5.0,5.0,94,0.00,,---,0.00,VWS V14.01,2014-07-09 07:38:00,
2014-07-09 03:43:00,64.0,62.5,29.90,WSW,247,0.0,4.0,95,0.00,,---,0.00,VWS V14.01,2014-07-09 07:43:00,
2014-07-09 03:48:00,64.0,62.8,29.90,WSW,247,0.0,3.0,96,0.00,,---,0.00,VWS V14.01,2014-07-09 07:48:00,
2014-07-09 03:53:00,64.0,62.5,29.90,WSW,247,0.0,3.0,95,0.00,,---,0.00,VWS V14.01,2014-07-09 07:53:00,
2014-07-09 03:58:00,64.0,62.8,29.90,WSW,247,0.0,3.0,96,0.00,,---,0.00,VWS V14.01,2014-07-09 07:58:00,
2014-07-09 04:03:00,64.0,62.8,29.90,WSW,247,1.0,3.0,96,0.00,,---,0.00,VWS V14.01,2014-07-09 08:03:00,
2014-07-09 04:08:00,64.0,63.1,29.90,WSW,247,3.0,5.0,97,0.00,,---,0.00,VWS V14.01,2014-07-09 08:08:00,
2014-07-09 04:13:00,64.0,63.1,29.90,SW,225,4.0,5.0,97,0.00,,---,0.00,VWS V14.01,2014-07-09 08:13:00,
2014-07-09 04:18:00,64.0,63.1,29.90,SW,225,0.0,4.0,97,0.00,,---,0.00,VWS V14.01,2014-07-09 08:18:00,
2014-07-09 04:23:00,64.0,63.1,29.90,SW,225,3.0,4.0,97,0.00,,---,0.00,VWS V14.01,2014-07-09 08:23:00,
2014-07-09 04:28:00,64.0,63.1,29.90,WSW,247,3.0,7.0,97,0.00,,---,0.00,VWS V14.01,2014-07-09 08:28:00,
2014-07-09 04:33:00,64.0,63.1,29.90,WSW,247,4.0,6.0,97,0.00,,---,0.00,VWS V14.01,2014-07-09 08:33:00,
2014-07-09 04:38:00,64.0,63.1,29.90,WSW,247,2.0,7.0,97,0.00,,---,0.00,VWS V14.01,2014-07-09 08:38:00,
2014-07-09 04:44:00,64.0,62.8,29.90,West,270,3.0,5.0,96,0.00,,---,0.00,VWS V14.01,2014-07-09 08:44:00,
2014-07-09 04:49:00,64.0,62.8,29.90,SW,225,3.0,8.0,96,0.00,,---,0.00,VWS V14.01,2014-07-09 08:49:00,
2014-07-09 04:54:00,64.0,62.8,29.90,SW,225,0.0,6.0,96,0.00,,---,0.00,VWS V14.01,2014-07-09 08:54:00,
2014-07-09 04:59:00,64.0,62.8,29.91,WSW,247,3.0,7.0,96,0.00,,---,0.00,VWS V14.01,2014-07-09 08:59:00,
2014-07-09 05:04:00,64.0,62.8,29.91,WSW,247,3.0,6.0,96,0.00,,---,0.00,VWS V14.01,2014-07-09 09:04:00,
2014-07-09 05:09:00,64.0,62.8,29.91,WSW,247,4.0,6.0,96,0.00,,---,0.00,VWS V14.01,2014-07-09 09:09:00,
2014-07-09 05:14:00,64.0,62.8,29.91,WSW,247,3.0,5.0,96,0.00,,---,0.00,VWS V14.01,2014-07-09 09:14:00,
2014-07-09 05:19:00,64.0,62.8,29.91,WSW,247,3.0,5.0,96,0.00,,---,0.00,VWS V14.01,2014-07-09 09:19:00,
2014-07-09 05:24:00,64.0,62.8,29.91,WSW,247,4.0,5.0,96,0.00,,---,0.00,VWS V14.01,2014-07-09 09:24:00,
2014-07-09 05:29:00,63.0,61.8,29.91,WSW,247,2.0,5.0,96,0.00,,---,0.00,VWS V14.01,2014-07-09 09:29:00,
2014-07-09 05:34:00,63.0,61.8,29.91,WSW,247,2.0,5.0,96,0.00,,---,0.00,VWS V14.01,2014-07-09 09:34:00,
2014-07-09 05:39:00,63.0,62.1,29.92,WSW,247,3.0,3.0,97,0.00,,---,0.00,VWS V14.01,2014-07-09 09:39:00,
2014-07-09 05:44:00,63.0,62.1,29.92,WSW,247,3.0,5.0,97,0.00,,---,0.00,VWS V14.01,2014-07-09 09:44:00,
2014-07-09 05:49:00,63.0,62.7,29.92,WSW,247,3.0,5.0,99,0.00,,---,0.00,VWS V14.01,2014-07-09 09:49:00,
2014-07-09 05:54:00,63.0,62.7,29.92,SW,225,3.0,5.0,99,0.00,,---,0.00,VWS V14.01,2014-07-09 09:54:00,
2014-07-09 05:59:00,63.0,62.7,29.93,WSW,247,2.0,4.0,99,0.00,,---,0.00,VWS V14.01,2014-07-09 09:59:00,
2014-07-09 06:04:00,63.0,62.7,29.93,WSW,247,1.0,3.0,99,0.00,,---,0.00,VWS V14.01,2014-07-09 10:04:00,
2014-07-09 06:09:00,62.0,61.7,29.92,WSW,247,1.0,3.0,99,0.00,,---,0.00,VWS V14.01,2014-07-09 10:09:00,
2014-07-09 06:14:00,62.0,61.7,29.92,WSW,247,1.0,3.0,99,0.00,,---,0.00,VWS V14.01,2014-07-09 10:14:00,
2014-07-09 06:19:00,62.0,61.7,29.93,WSW,247,0.0,3.0,99,0.00,,---,0.00,VWS V14.01,2014-07-09 10:19:00,
2014-07-09 06:24:00,62.0,62.0,29.93,SW,225,1.0,4.0,100,0.00,,---,0.00,VWS V14.01,2014-07-09 10:24:00,
2014-07-09 06:29:00,62.0,62.0,29.93,WSW,247,5.0,5.0,100,0.00,,---,0.00,VWS V14.01,2014-07-09 10:29:00,
2014-07-09 06:34:00,62.0,62.0,29.93,WSW,247,3.0,5.0,100,0.00,,---,0.00,VWS V14.01,2014-07-09 10:34:00,
2014-07-09 06:39:00,62.0,62.0,29.93,WSW,247,3.0,4.0,100,0.00,,---,0.00,VWS V14.01,2014-07-09 10:39:00,
2014-07-09 06:44:00,62.0,62.0,29.93,WSW,247,0.0,4.0,100,0.00,,---,0.00,VWS V14.01,2014-07-09 10:44:00,
2014-07-09 06:49:00,62.0,62.0,29.93,WSW,247,2.0,4.0,100,0.00,,---,0.00,VWS V14.01,2014-07-09 10:49:00,
2014-07-09 06:54:00,62.0,62.0,29.93,WSW,247,0.0,4.0,100,0.00,,---,0.00,VWS V14.01,2014-07-09 10:54:00,
2014-07-09 06:59:00,62.0,62.0,29.94,SW,225,0.0,4.0,100,0.00,,---,0.00,VWS V14.01,2014-07-09 10:59:00,
2014-07-09 07:04:00,62.0,62.0,29.94,West,270,4.0,5.0,100,0.00,,---,0.00,VWS V14.01,2014-07-09 11:04:00,
2014-07-09 07:09:00,62.0,62.0,29.94,West,270,5.0,6.0,100,0.00,,---,0.00,VWS V14.01,2014-07-09 11:09:00,
2014-07-09 07:14:00,63.0,63.0,29.94,West,270,3.0,8.0,100,0.00,,---,0.00,VWS V14.01,2014-07-09 11:14:00,
2014-07-09 07:19:00,63.0,63.0,29.94,SW,225,4.0,6.0,100,0.00,,---,0.00,VWS V14.01,2014-07-09 11:19:00,
2014-07-09 07:24:00,63.0,63.0,29.94,WSW,247,1.0,5.0,100,0.00,,---,0.00,VWS V14.01,2014-07-09 11:24:00,
2014-07-09 07:29:00,64.0,64.0,29.94,WNW,292,5.0,8.0,100,0.00,,---,0.00,VWS V14.01,2014-07-09 11:29:00,
2014-07-09 07:34:00,64.0,64.0,29.94,SSW,202,0.0,9.0,100,0.00,,---,0.00,VWS V14.01,2014-07-09 11:34:00,
2014-07-09 07:39:00,64.0,64.0,29.94,SSW,202,0.0,4.0,100,0.00,,---,0.00,VWS V14.01,2014-07-09 11:39:00,
2014-07-09 07:44:00,64.0,64.0,29.94,SW,225,3.0,4.0,100,0.00,,---,0.00,VWS V14.01,2014-07-09 11:44:00,
2014-07-09 07:49:00,65.0,64.4,29.94,West,270,4.0,8.0,98,0.00,,---,0.00,VWS V14.01,2014-07-09 11:49:00,
2014-07-09 07:54:00,65.0,64.1,29.94,West,270,4.0,5.0,97,0.00,,---,0.00,VWS V14.01,2014-07-09 11:54:00,
2014-07-09 07:59:00,65.0,64.4,29.94,WSW,247,1.0,5.0,98,0.00,,---,0.00,VWS V14.01,2014-07-09 11:59:00,
2014-07-09 08:04:00,65.0,62.9,29.94,WSW,247,5.0,8.0,93,0.00,,---,0.00,VWS V14.01,2014-07-09 12:04:00,
2014-07-09 08:09:00,66.0,63.6,29.94,West,270,5.0,7.0,92,0.00,,---,0.00,VWS V14.01,2014-07-09 12:09:00,
2014-07-09 08:14:00,66.0,63.0,29.94,West,270,4.0,8.0,90,0.00,,---,0.00,VWS V14.01,2014-07-09 12:14:00,
2014-07-09 08:19:00,67.0,64.0,29.94,WSW,247,3.0,7.0,90,0.00,,---,0.00,VWS V14.01,2014-07-09 12:19:00,
2014-07-09 08:24:00,67.0,64.0,29.94,West,270,0.0,5.0,90,0.00,,---,0.00,VWS V14.01,2014-07-09 12:24:00,
2014-07-09 08:29:00,68.0,64.3,29.95,WSW,247,3.0,6.0,88,0.00,,---,0.00,VWS V14.01,2014-07-09 12:29:00,
2014-07-09 08:34:00,68.0,64.3,29.95,WSW,247,1.0,6.0,88,0.00,,---,0.00,VWS V14.01,2014-07-09 12:34:00,
2014-07-09 08:39:00,68.0,63.7,29.94,WSW,247,0.0,5.0,86,0.00,,---,0.00,VWS V14.01,2014-07-09 12:39:00,
2014-07-09 08:44:00,68.0,62.7,29.94,WSW,247,5.0,8.0,83,0.00,,---,0.00,VWS V14.01,2014-07-09 12:44:00,
2014-07-09 08:49:00,69.0,64.3,29.94,SW,225,3.0,6.0,85,0.00,,---,0.00,VWS V14.01,2014-07-09 12:49:00,
2014-07-09 08:54:00,69.0,63.3,29.94,West,270,5.0,8.0,82,0.00,,---,0.00,VWS V14.01,2014-07-09 12:54:00,
2014-07-09 08:59:00,69.0,62.9,29.94,West,270,5.0,9.0,81,0.00,,---,0.00,VWS V14.01,2014-07-09 12:59:00,
2014-07-09 09:04:00,69.0,62.6,29.94,SW,225,6.0,7.0,80,0.00,,---,0.00,VWS V14.01,2014-07-09 13:04:00,
2014-07-09 09:09:00,69.0,62.2,29.94,West,270,4.0,8.0,79,0.00,,---,0.00,VWS V14.01,2014-07-09 13:09:00,
2014-07-09 09:14:00,70.0,63.2,29.94,West,270,6.0,7.0,79,0.00,,---,0.00,VWS V14.01,2014-07-09 13:14:00,
2014-07-09 09:19:00,70.0,62.8,29.93,WSW,247,5.0,9.0,78,0.00,,---,0.00,VWS V14.01,2014-07-09 13:19:00,
2014-07-09 09:24:00,70.0,63.2,29.93,West,270,4.0,7.0,79,0.00,,---,0.00,VWS V14.01,2014-07-09 13:24:00,
2014-07-09 09:29:00,70.0,62.1,29.94,SW,225,5.0,9.0,76,0.00,,---,0.00,VWS V14.01,2014-07-09 13:29:00,
2014-07-09 09:34:00,70.0,63.5,29.94,WNW,292,5.0,7.0,80,0.00,,---,0.00,VWS V14.01,2014-07-09 13:34:00,
2014-07-09 09:39:00,70.0,61.7,29.94,West,270,5.0,7.0,75,0.00,,---,0.00,VWS V14.01,2014-07-09 13:39:00,
2014-07-09 09:44:00,71.0,62.7,29.94,West,270,6.0,8.0,75,0.00,,---,0.00,VWS V14.01,2014-07-09 13:44:00,
2014-07-09 09:49:00,72.0,64.0,29.94,WSW,247,3.0,7.0,76,0.00,,---,0.00,VWS V14.01,2014-07-09 13:49:00,
2014-07-09 09:54:00,71.0,61.1,29.94,WNW,292,6.0,7.0,71,0.00,,---,0.00,VWS V14.01,2014-07-09 13:54:00,
2014-07-09 09:59:00,72.0,62.9,29.94,WNW,292,5.0,6.0,73,0.00,,---,0.00,VWS V14.01,2014-07-09 13:59:00,
2014-07-09 10:04:00,72.0,62.1,29.94,West,270,3.0,7.0,71,0.00,,---,0.00,VWS V14.01,2014-07-09 14:04:00,
2014-07-09 10:09:00,73.0,61.8,29.94,NW,315,3.0,6.0,68,0.00,,---,0.00,VWS V14.01,2014-07-09 14:09:00,
2014-07-09 10:14:00,73.0,61.8,29.94,West,270,3.0,8.0,68,0.00,,---,0.00,VWS V14.01,2014-07-09 14:14:00,
2014-07-09 10:19:00,72.0,61.7,29.94,WNW,292,2.0,8.0,70,0.00,,---,0.00,VWS V14.01,2014-07-09 14:19:00,
2014-07-09 10:24:00,73.0,60.5,29.94,West,270,5.0,9.0,65,0.00,,---,0.00,VWS V14.01,2014-07-09 14:24:00,
2014-07-09 10:29:00,73.0,61.0,29.94,NW,315,5.0,10.0,66,0.00,,---,0.00,VWS V14.01,2014-07-09 14:29:00,
2014-07-09 10:34:00,73.0,61.0,29.94,WSW,247,4.0,8.0,66,0.00,,---,0.00,VWS V14.01,2014-07-09 14:34:00,
2014-07-09 10:39:00,74.0,61.5,29.95,SW,225,4.0,8.0,65,0.00,,---,0.00,VWS V14.01,2014-07-09 14:39:00,
2014-07-09 10:44:00,74.0,59.2,29.95,West,270,5.0,8.0,60,0.00,,---,0.00,VWS V14.01,2014-07-09 14:44:00,
2014-07-09 10:49:00,74.0,58.3,29.94,WSW,247,5.0,8.0,58,0.00,,---,0.00,VWS V14.01,2014-07-09 14:49:00,
2014-07-09 10:54:00,74.0,59.7,29.94,WNW,292,8.0,9.0,61,0.00,,---,0.00,VWS V14.01,2014-07-09 14:54:00,
2014-07-09 10:59:00,74.0,61.5,29.95,West,270,4.0,9.0,65,0.00,,---,0.00,VWS V14.01,2014-07-09 14:59:00,
2014-07-09 11:04:00,75.0,60.7,29.95,West,270,3.0,7.0,61,0.00,,---,0.00,VWS V14.01,2014-07-09 15:04:00,
2014-07-09 11:09:00,75.0,60.2,29.95,WSW,247,3.0,8.0,60,0.00,,---,0.00,VWS V14.01,2014-07-09 15:09:00,
2014-07-09 11:14:00,76.0,61.1,29.95,SW,225,4.0,5.0,60,0.00,,---,0.00,VWS V14.01,2014-07-09 15:14:00,
2014-07-09 11:19:00,76.0,60.2,29.94,SSW,202,6.0,8.0,58,0.00,,---,0.00,VWS V14.01,2014-07-09 15:19:00,
2014-07-09 11:24:00,75.0,57.8,29.94,West,270,8.0,12.0,55,0.00,,---,0.00,VWS V14.01,2014-07-09 15:24:00,
2014-07-09 11:29:00,75.0,57.8,29.95,West,270,7.0,10.0,55,0.00,,---,0.00,VWS V14.01,2014-07-09 15:29:00,
2014-07-09 11:34:00,75.0,58.8,29.95,WNW,292,8.0,9.0,57,0.00,,---,0.00,VWS V14.01,2014-07-09 15:34:00,
2014-07-09 11:39:00,74.0,55.8,29.94,WNW,292,5.0,13.0,53,0.00,,---,0.00,VWS V14.01,2014-07-09 15:39:00,
2014-07-09 11:44:00,75.0,57.2,29.94,WSW,247,5.0,10.0,54,0.00,,---,0.00,VWS V14.01,2014-07-09 15:44:00,
2014-07-09 11:49:00,75.0,58.3,29.95,West,270,6.0,10.0,56,0.00,,---,0.00,VWS V14.01,2014-07-09 15:49:00,
2014-07-09 11:54:00,75.0,58.3,29.95,NW,315,4.0,10.0,56,0.00,,---,0.00,VWS V14.01,2014-07-09 15:54:00,
2014-07-09 11:59:00,73.0,58.3,29.95,WNW,292,7.0,10.0,60,0.00,,---,0.00,VWS V14.01,2014-07-09 15:59:00,
2014-07-09 12:04:00,74.0,57.3,29.95,West,270,6.0,8.0,56,0.00,,---,0.00,VWS V14.01,2014-07-09 16:04:00,
2014-07-09 12:09:00,74.0,56.8,29.95,NW,315,8.0,10.0,55,0.00,,---,0.00,VWS V14.01,2014-07-09 16:09:00,
2014-07-09 12:14:00,73.0,58.3,29.95,WNW,292,7.0,10.0,60,0.00,,---,0.00,VWS V14.01,2014-07-09 16:14:00,
2014-07-09 12:19:00,74.0,57.8,29.96,WNW,292,6.0,11.0,57,0.00,,---,0.00,VWS V14.01,2014-07-09 16:19:00,
2014-07-09 12:24:00,75.0,59.7,29.96,West,270,7.0,9.0,59,0.00,,---,0.00,VWS V14.01,2014-07-09 16:24:00,
2014-07-09 12:29:00,75.0,58.3,29.95,NW,315,10.0,11.0,56,0.00,,---,0.00,VWS V14.01,2014-07-09 16:29:00,
2014-07-09 12:34:00,74.0,59.2,29.95,NW,315,4.0,12.0,60,0.00,,---,0.00,VWS V14.01,2014-07-09 16:34:00,
2014-07-09 12:39:00,75.0,58.3,29.95,West,270,5.0,10.0,56,0.00,,---,0.00,VWS V14.01,2014-07-09 16:39:00,
2014-07-09 12:44:00,76.0,61.1,29.95,WNW,292,3.0,10.0,60,0.00,,---,0.00,VWS V14.01,2014-07-09 16:44:00,
2014-07-09 12:49:00,76.0,62.0,29.95,NW,315,8.0,8.0,62,0.00,,---,0.00,VWS V14.01,2014-07-09 16:49:00,
2014-07-09 12:54:00,75.0,56.7,29.95,WNW,292,6.0,13.0,53,0.00,,---,0.00,VWS V14.01,2014-07-09 16:54:00,
2014-07-09 12:59:00,75.0,57.8,29.95,WNW,292,7.0,12.0,55,0.00,,---,0.00,VWS V14.01,2014-07-09 16:59:00,
2014-07-09 13:04:00,75.0,57.8,29.95,WNW,292,7.0,10.0,55,0.00,,---,0.00,VWS V14.01,2014-07-09 17:04:00,
2014-07-09 13:09:00,75.0,58.3,29.95,West,270,5.0,10.0,56,0.00,,---,0.00,VWS V14.01,2014-07-09 17:09:00,
2014-07-09 13:14:00,74.0,56.8,29.95,WNW,292,5.0,11.0,55,0.00,,---,0.00,VWS V14.01,2014-07-09 17:14:00,
2014-07-09 13:19:00,75.0,57.8,29.96,NW,315,4.0,10.0,55,0.00,,---,0.00,VWS V14.01,2014-07-09 17:19:00,
2014-07-09 13:24:00,75.0,57.2,29.96,NW,315,4.0,10.0,54,0.00,,---,0.00,VWS V14.01,2014-07-09 17:24:00,
2014-07-09 13:29:00,76.0,59.2,29.95,NNW,337,6.0,11.0,56,0.00,,---,0.00,VWS V14.01,2014-07-09 17:29:00,
2014-07-09 13:34:00,76.0,57.7,29.95,WNW,292,8.0,10.0,53,0.00,,---,0.00,VWS V14.01,2014-07-09 17:34:00,
2014-07-09 13:39:00,76.0,56.6,29.95,WSW,247,8.0,10.0,51,0.00,,---,0.00,VWS V14.01,2014-07-09 17:39:00,
2014-07-09 13:44:00,76.0,56.6,29.95,NW,315,9.0,11.0,51,0.00,,---,0.00,VWS V14.01,2014-07-09 17:44:00,
2014-07-09 13:49:00,77.0,57.5,29.95,WNW,292,7.0,11.0,51,0.00,,---,0.00,VWS V14.01,2014-07-09 17:49:00,
2014-07-09 13:54:00,77.0,56.4,29.95,WSW,247,5.0,11.0,49,0.00,,---,0.00,VWS V14.01,2014-07-09 17:54:00,
2014-07-09 13:59:00,76.0,57.1,29.95,West,270,5.0,11.0,52,0.00,,---,0.00,VWS V14.01,2014-07-09 17:59:00,
2014-07-09 14:04:00,76.0,60.7,29.95,WNW,292,7.0,12.0,59,0.00,,---,0.00,VWS V14.01,2014-07-09 18:04:00,
2014-07-09 14:09:00,76.0,56.0,29.94,West,270,8.0,13.0,50,0.00,,---,0.00,VWS V14.01,2014-07-09 18:09:00,
2014-07-09 14:14:00,76.0,57.7,29.94,NW,315,7.0,12.0,53,0.00,,---,0.00,VWS V14.01,2014-07-09 18:14:00,
2014-07-09 14:19:00,77.0,57.5,29.94,WNW,292,3.0,11.0,51,0.00,,---,0.00,VWS V14.01,2014-07-09 18:19:00,
2014-07-09 14:24:00,77.0,57.0,29.94,WNW,292,7.0,9.0,50,0.00,,---,0.00,VWS V14.01,2014-07-09 18:24:00,
2014-07-09 14:29:00,77.0,57.5,29.94,WSW,247,6.0,12.0,51,0.00,,---,0.00,VWS V14.01,2014-07-09 18:29:00,
2014-07-09 14:34:00,77.0,58.6,29.94,WNW,292,8.0,10.0,53,0.00,,---,0.00,VWS V14.01,2014-07-09 18:34:00,
2014-07-09 14:39:00,77.0,56.4,29.94,NW,315,4.0,9.0,49,0.00,,---,0.00,VWS V14.01,2014-07-09 18:39:00,
2014-07-09 14:44:00,77.0,57.0,29.94,SW,225,6.0,7.0,50,0.00,,---,0.00,VWS V14.01,2014-07-09 18:44:00,
2014-07-09 14:49:00,78.0,57.3,29.93,South,180,10.0,13.0,49,0.00,,---,0.00,VWS V14.01,2014-07-09 18:49:00,
2014-07-09 14:54:00,78.0,55.6,29.93,SSE,157,4.0,10.0,46,0.00,,---,0.00,VWS V14.01,2014-07-09 18:54:00,
2014-07-09 14:59:00,79.0,57.7,29.93,WSW,247,6.0,10.0,48,0.00,,---,0.00,VWS V14.01,2014-07-09 18:59:00,
2014-07-09 15:04:00,78.0,57.3,29.93,WNW,292,4.0,11.0,49,0.00,,---,0.00,VWS V14.01,2014-07-09 19:04:00,
2014-07-09 15:09:00,78.0,56.7,29.93,WSW,247,4.0,10.0,48,0.00,,---,0.00,VWS V14.01,2014-07-09 19:09:00,
2014-07-09 15:14:00,79.0,58.2,29.93,SSW,202,5.0,8.0,49,0.00,,---,0.00,VWS V14.01,2014-07-09 19:14:00,
2014-07-09 15:19:00,80.0,57.4,29.93,West,270,6.0,9.0,46,0.00,,---,0.00,VWS V14.01,2014-07-09 19:19:00,
2014-07-09 15:24:00,79.0,56.5,29.93,SSE,157,5.0,11.0,46,0.00,,---,0.00,VWS V14.01,2014-07-09 19:24:00,
2014-07-09 15:29:00,79.0,57.1,29.93,SSE,157,5.0,9.0,47,0.00,,---,0.00,VWS V14.01,2014-07-09 19:29:00,
2014-07-09 15:34:00,80.0,57.4,29.93,SSW,202,8.0,10.0,46,0.00,,---,0.00,VWS V14.01,2014-07-09 19:34:00,
2014-07-09 15:39:00,79.0,58.2,29.93,WSW,247,2.0,10.0,49,0.00,,---,0.00,VWS V14.01,2014-07-09 19:39:00,
2014-07-09 15:44:00,79.0,57.1,29.93,WSW,247,6.0,9.0,47,0.00,,---,0.00,VWS V14.01,2014-07-09 19:44:00,
2014-07-09 15:49:00,79.0,58.8,29.92,West,270,4.0,11.0,50,0.00,,---,0.00,VWS V14.01,2014-07-09 19:49:00,
2014-07-09 15:54:00,79.0,58.2,29.92,SW,225,7.0,11.0,49,0.00,,---,0.00,VWS V14.01,2014-07-09 19:54:00,
2014-07-09 15:59:00,80.0,57.4,29.92,SW,225,5.0,10.0,46,0.00,,---,0.00,VWS V14.01,2014-07-09 19:59:00,
2014-07-09 16:04:00,79.0,55.2,29.92,SW,225,9.0,11.0,44,0.00,,---,0.00,VWS V14.01,2014-07-09 20:04:00,
2014-07-09 16:09:00,78.0,56.7,29.92,West,270,3.0,10.0,48,0.00,,---,0.00,VWS V14.01,2014-07-09 20:09:00,
2014-07-09 16:14:00,79.0,56.5,29.92,West,270,6.0,10.0,46,0.00,,---,0.00,VWS V14.01,2014-07-09 20:14:00,
2014-07-09 16:19:00,78.0,56.7,29.92,WNW,292,5.0,11.0,48,0.00,,---,0.00,VWS V14.01,2014-07-09 20:19:00,
2014-07-09 16:24:00,78.0,58.4,29.92,West,270,6.0,10.0,51,0.00,,---,0.00,VWS V14.01,2014-07-09 20:24:00,
2014-07-09 16:29:00,79.0,56.5,29.92,SSW,202,6.0,9.0,46,0.00,,---,0.00,VWS V14.01,2014-07-09 20:29:00,
2014-07-09 16:34:00,80.0,58.6,29.92,SW,225,6.0,8.0,48,0.00,,---,0.00,VWS V14.01,2014-07-09 20:34:00,
2014-07-09 16:39:00,79.0,56.5,29.92,SW,225,5.0,11.0,46,0.00,,---,0.00,VWS V14.01,2014-07-09 20:39:00,
2014-07-09 16:44:00,78.0,56.7,29.92,West,270,6.0,8.0,48,0.00,,---,0.00,VWS V14.01,2014-07-09 20:44:00,
2014-07-09 16:49:00,77.0,58.0,29.93,WSW,247,2.0,9.0,52,0.00,,---,0.00,VWS V14.01,2014-07-09 20:49:00,
2014-07-09 16:54:00,78.0,56.7,29.93,WNW,292,4.0,6.0,48,0.00,,---,0.00,VWS V14.01,2014-07-09 20:54:00,
2014-07-09 16:59:00,77.0,57.5,29.93,WNW,292,7.0,11.0,51,0.00,,---,0.00,VWS V14.01,2014-07-09 20:59:00,
2014-07-09 17:04:00,78.0,59.5,29.93,NNW,337,5.0,9.0,53,0.00,,---,0.00,VWS V14.01,2014-07-09 21:04:00,
2014-07-09 17:09:00,78.0,56.7,29.93,WSW,247,6.0,10.0,48,0.00,,---,0.00,VWS V14.01,2014-07-09 21:09:00,
2014-07-09 17:14:00,78.0,57.3,29.93,WSW,247,8.0,11.0,49,0.00,,---,0.00,VWS V14.01,2014-07-09 21:14:00,
2014-07-09 17:19:00,77.0,57.5,29.93,WNW,292,4.0,12.0,51,0.00,,---,0.00,VWS V14.01,2014-07-09 21:19:00,
2014-07-09 17:24:00,76.0,56.6,29.93,NNW,337,6.0,10.0,51,0.00,,---,0.00,VWS V14.01,2014-07-09 21:24:00,
2014-07-09 17:29:00,78.0,57.9,29.93,West,270,12.0,15.0,50,0.00,,---,0.00,VWS V14.01,2014-07-09 21:29:00,
2014-07-09 17:34:00,78.0,57.9,29.93,WNW,292,6.0,16.0,50,0.00,,---,0.00,VWS V14.01,2014-07-09 21:34:00,
2014-07-09 17:39:00,78.0,59.5,29.93,WSW,247,12.0,18.0,53,0.00,,---,0.00,VWS V14.01,2014-07-09 21:39:00,
2014-07-09 17:44:00,77.0,56.4,29.93,NW,315,8.0,15.0,49,0.00,,---,0.00,VWS V14.01,2014-07-09 21:44:00,
2014-07-09 17:49:00,78.0,57.3,29.93,WSW,247,6.0,12.0,49,0.00,,---,0.00,VWS V14.01,2014-07-09 21:49:00,
2014-07-09 17:54:00,77.0,57.0,29.93,West,270,5.0,12.0,50,0.00,,---,0.00,VWS V14.01,2014-07-09 21:54:00,
2014-07-09 17:59:00,77.0,58.6,29.93,WNW,292,6.0,13.0,53,0.00,,---,0.00,VWS V14.01,2014-07-09 21:59:00,
2014-07-09 18:04:00,78.0,58.4,29.93,NW,315,4.0,10.0,51,0.00,,---,0.00,VWS V14.01,2014-07-09 22:04:00,
2014-07-09 18:09:00,78.0,58.4,29.93,WNW,292,5.0,10.0,51,0.00,,---,0.00,VWS V14.01,2014-07-09 22:09:00,
2014-07-09 18:14:00,77.0,58.6,29.93,West,270,8.0,10.0,53,0.00,,---,0.00,VWS V14.01,2014-07-09 22:14:00,
2014-07-09 18:19:00,77.0,58.6,29.93,WNW,292,10.0,11.0,53,0.00,,---,0.00,VWS V14.01,2014-07-09 22:19:00,
2014-07-09 18:24:00,77.0,58.6,29.93,WNW,292,4.0,12.0,53,0.00,,---,0.00,VWS V14.01,2014-07-09 22:24:00,
2014-07-09 18:29:00,77.0,58.6,29.93,NW,315,8.0,10.0,53,0.00,,---,0.00,VWS V14.01,2014-07-09 22:29:00,
2014-07-09 18:34:00,77.0,58.6,29.93,West,270,8.0,12.0,53,0.00,,---,0.00,VWS V14.01,2014-07-09 22:34:00,
2014-07-09 18:39:00,77.0,59.6,29.92,WNW,292,9.0,10.0,55,0.00,,---,0.00,VWS V14.01,2014-07-09 22:39:00,
2014-07-09 18:44:00,76.0,57.1,29.92,WNW,292,5.0,12.0,52,0.00,,---,0.00,VWS V14.01,2014-07-09 22:44:00,
2014-07-09 18:49:00,77.0,57.5,29.92,WSW,247,6.0,11.0,51,0.00,,---,0.00,VWS V14.01,2014-07-09 22:49:00,
2014-07-09 18:54:00,76.0,58.7,29.92,WNW,292,5.0,12.0,55,0.00,,---,0.00,VWS V14.01,2014-07-09 22:54:00,
2014-07-09 18:59:00,76.0,58.7,29.93,WNW,292,10.0,11.0,55,0.00,,---,0.00,VWS V14.01,2014-07-09 22:59:00,
2014-07-09 19:04:00,76.0,57.7,29.93,WSW,247,8.0,13.0,53,0.00,,---,0.00,VWS V14.01,2014-07-09 23:04:00,
2014-07-09 19:09:00,75.0,57.8,29.93,WNW,292,8.0,15.0,55,0.00,,---,0.00,VWS V14.01,2014-07-09 23:09:00,
2014-07-09 19:14:00,75.0,58.3,29.93,WNW,292,8.0,12.0,56,0.00,,---,0.00,VWS V14.01,2014-07-09 23:14:00,
2014-07-09 19:19:00,76.0,59.2,29.93,WNW,292,6.0,11.0,56,0.00,,---,0.00,VWS V14.01,2014-07-09 23:19:00,
2014-07-09 19:24:00,76.0,58.7,29.93,WNW,292,8.0,12.0,55,0.00,,---,0.00,VWS V14.01,2014-07-09 23:24:00,
2014-07-09 19:29:00,76.0,59.7,29.93,WSW,247,8.0,10.0,57,0.00,,---,0.00,VWS V14.01,2014-07-09 23:29:00,
2014-07-09 19:34:00,75.0,57.8,29.93,WSW,247,6.0,10.0,55,0.00,,---,0.00,VWS V14.01,2014-07-09 23:34:00,
2014-07-09 19:39:00,75.0,58.3,29.93,WNW,292,9.0,11.0,56,0.00,,---,0.00,VWS V14.01,2014-07-09 23:39:00,
2014-07-09 19:44:00,75.0,58.8,29.93,WNW,292,4.0,10.0,57,0.00,,---,0.00,VWS V14.01,2014-07-09 23:44:00,
2014-07-09 19:49:00,75.0,59.7,29.94,West,270,5.0,9.0,59,0.00,,---,0.00,VWS V14.01,2014-07-09 23:49:00,
2014-07-09 19:54:00,75.0,60.2,29.94,NW,315,5.0,7.0,60,0.00,,---,0.00,VWS V14.01,2014-07-09 23:54:00,
2014-07-09 19:59:00,74.0,59.2,29.95,West,270,5.0,9.0,60,0.00,,---,0.00,VWS V14.01,2014-07-09 23:59:00,
2014-07-09 20:04:00,74.0,60.2,29.95,West,270,7.0,8.0,62,0.00,,---,0.00,VWS V14.01,2014-07-10 00:04:00,
2014-07-09 20:09:00,73.0,59.7,29.96,West,270,6.0,10.0,63,0.00,,---,0.00,VWS V14.01,2014-07-10 00:09:00,
2014-07-09 20:14:00,73.0,60.5,29.96,WNW,292,3.0,7.0,65,0.00,,---,0.00,VWS V14.01,2014-07-10 00:14:00,
2014-07-09 20:19:00,72.0,59.6,29.96,NW,315,3.0,7.0,65,0.00,,---,0.00,VWS V14.01,2014-07-10 00:19:00,
2014-07-09 20:24:00,72.0,59.6,29.96,WNW,292,4.0,6.0,65,0.00,,---,0.00,VWS V14.01,2014-07-10 00:24:00,
2014-07-09 20:29:00,72.0,60.0,29.97,West,270,3.0,5.0,66,0.00,,---,0.00,VWS V14.01,2014-07-10 00:29:00,
2014-07-09 20:34:00,72.0,60.9,29.97,WNW,292,4.0,6.0,68,0.00,,---,0.00,VWS V14.01,2014-07-10 00:34:00,
2014-07-09 20:39:00,71.0,59.9,29.97,WNW,292,2.0,4.0,68,0.00,,---,0.00,VWS V14.01,2014-07-10 00:39:00,
2014-07-09 20:44:00,71.0,60.3,29.97,WNW,292,3.0,6.0,69,0.00,,---,0.00,VWS V14.01,2014-07-10 00:44:00,
2014-07-09 20:49:00,71.0,60.3,29.97,WNW,292,3.0,4.0,69,0.00,,---,0.00,VWS V14.01,2014-07-10 00:49:00,
2014-07-09 20:54:00,72.0,61.3,29.97,West,270,2.0,4.0,69,0.00,,---,0.00,VWS V14.01,2014-07-10 00:54:00,
2014-07-09 20:59:00,72.0,61.3,29.97,West,270,2.0,3.0,69,0.00,,---,0.00,VWS V14.01,2014-07-10 00:59:00,
2014-07-09 21:04:00,72.0,61.3,29.97,West,270,1.0,4.0,69,0.00,,---,0.00,VWS V14.01,2014-07-10 01:04:00,
2014-07-09 21:09:00,71.0,60.7,29.98,West,270,0.0,4.0,70,0.00,,---,0.00,VWS V14.01,2014-07-10 01:09:00,
2014-07-09 21:14:00,71.0,60.7,29.98,WSW,247,3.0,4.0,70,0.00,,---,0.00,VWS V14.01,2014-07-10 01:14:00,
2014-07-09 21:19:00,71.0,61.1,29.98,West,270,2.0,3.0,71,0.00,,---,0.00,VWS V14.01,2014-07-10 01:19:00,
2014-07-09 21:24:00,71.0,61.5,29.98,West,270,3.0,3.0,72,0.00,,---,0.00,VWS V14.01,2014-07-10 01:24:00,
2014-07-09 21:29:00,70.0,61.0,29.98,West,270,2.0,4.0,73,0.00,,---,0.00,VWS V14.01,2014-07-10 01:29:00,
2014-07-09 21:34:00,70.0,61.0,29.98,West,270,2.0,3.0,73,0.00,,---,0.00,VWS V14.01,2014-07-10 01:34:00,
2014-07-09 21:39:00,70.0,61.3,29.99,West,270,3.0,3.0,74,0.00,,---,0.00,VWS V14.01,2014-07-10 01:39:00,
2014-07-09 21:44:00,70.0,61.7,29.99,West,270,4.0,4.0,75,0.00,,---,0.00,VWS V14.01,2014-07-10 01:44:00,
2014-07-09 21:49:00,70.0,61.7,30.00,WNW,292,4.0,5.0,75,0.00,,---,0.00,VWS V14.01,2014-07-10 01:49:00,
2014-07-09 21:54:00,69.0,60.8,30.00,WNW,292,3.0,4.0,75,0.00,,---,0.00,VWS V14.01,2014-07-10 01:54:00,